STATID,TT.MM.JJJJ,TX,TXF,TM,TMF,TN,TNF,RR,RRF,RF,RFF,DD,DDF,SD,SDF,FF,FFF,ET,RG,SN,SNF,FM,FMF,RK,RKF,GR
5372,01.01.1961,,,,,,,,,,,,,,,,,,,4,2,,,,,
5372,02.01.1961,,,,,,,,,,,,,,,,,,,2,2,,,,,
5372,03.01.1961,,,,,,,,,,,,,,,,,,,1,2,,,,,
5372,04.01.1961,,,,,,,,,,,,,,,,,,,0,2,,,,,
5372,05.01.1961,,,,,,,,,,,,,,,,,,,1,2,,,,,
5372,06.01.1961,,,,,,,,,,,,,,,,,,,1,2,,,,,
5372,07.01.1961,,,,,,,,,,,,,,,,,,,1,2,,,,,
5372,08.01.1961,,,,,,,,,,,,,,,,,,,0,2,,,,,
5372,09.01.1961,,,,,,,,,,,,,,,,,,,1,2,,,,,
5372,10.01.1961,,,,,,,,,,,,,,,,,,,1,2,,,,,
5372,11.01.1961,,,,,,,,,,,,,,,,,,,1,2,,,,,
5372,12.01.1961,,,,,,,,,,,,,,,,,,,1,2,,,,,
5372,13.01.1961,,,,,,,,,,,,,,,,,,,1,2,,,,,
5372,14.01.1961,,,,,,,,,,,,,,,,,,,1,2,,,,,
5372,15.01.1961,,,,,,,,,,,,,,,,,,,1,2,,,,,
5372,16.01.1961,,,,,,,,,,,,,,,,,,,1,2,,,,,
5372,17.01.1961,,,,,,,,,,,,,,,,,,,1,2,,,,,
5372,18.01.1961,,,,,,,,,,,,,,,,,,,2,2,,,,,
5372,19.01.1961,,,,,,,,,,,,,,,,,,,2,2,,,,,
5372,20.01.1961,,,,,,,,,,,,,,,,,,,2,2,,,,,
5372,21.01.1961,,,,,,,,,,,,,,,,,,,1,2,,,,,
5372,22.01.1961,,,,,,,,,,,,,,,,,,,2,2,,,,,
5372,23.01.1961,,,,,,,,,,,,,,,,,,,4,2,,,,,
5372,24.01.1961,,,,,,,,,,,,,,,,,,,11,2,,,,,
5372,25.01.1961,,,,,,,,,,,,,,,,,,,13,2,,,,,
5372,26.01.1961,,,,,,,,,,,,,,,,,,,13,2,,,,,
5372,27.01.1961,,,,,,,,,,,,,,,,,,,13,2,,,,,
5372,28.01.1961,,,,,,,,,,,,,,,,,,,8,2,,,,,
5372,29.01.1961,,,,,,,,,,,,,,,,,,,4,2,,,,,
5372,30.01.1961,,,,,,,,,,,,,,,,,,,1,2,,,,,
5372,31.01.1961,,,,,,,,,,,,,,,,,,,1,2,,,,,
5372,01.02.1961,,,,,,,,,,,,,,,,,,,0,2,,,,,
5372,02.02.1961,,,,,,,,,,,,,,,,,,,0,2,,,,,
5372,03.02.1961,,,,,,,,,,,,,,,,,,,0,2,,,,,
5372,04.02.1961,,,,,,,,,,,,,,,,,,,1,2,,,,,
5372,05.02.1961,,,,,,,,,,,,,,,,,,,4,2,,,,,
5372,06.02.1961,,,,,,,,,,,,,,,,,,,4,2,,,,,
5372,07.02.1961,,,,,,,,,,,,,,,,,,,1,2,,,,,
5372,08.02.1961,,,,,,,,,,,,,,,,,,,0,2,,,,,
5372,09.02.1961,,,,,,,,,,,,,,,,,,,0,2,,,,,
5372,10.02.1961,,,,,,,,,,,,,,,,,,,0,2,,,,,
5372,11.02.1961,,,,,,,,,,,,,,,,,,,0,2,,,,,
5372,12.02.1961,,,,,,,,,,,,,,,,,,,0,2,,,,,
5372,13.02.1961,,,,,,,,,,,,,,,,,,,0,2,,,,,
5372,14.02.1961,,,,,,,,,,,,,,,,,,,0,2,,,,,
5372,15.02.1961,,,,,,,,,,,,,,,,,,,0,2,,,,,
5372,16.02.1961,,,,,,,,,,,,,,,,,,,0,2,,,,,
5372,17.02.1961,,,,,,,,,,,,,,,,,,,0,2,,,,,
5372,18.02.1961,,,,,,,,,,,,,,,,,,,0,2,,,,,
5372,19.02.1961,,,,,,,,,,,,,,,,,,,0,2,,,,,
5372,20.02.1961,,,,,,,,,,,,,,,,,,,0,2,,,,,
5372,21.02.1961,,,,,,,,,,,,,,,,,,,0,2,,,,,
5372,22.02.1961,,,,,,,,,,,,,,,,,,,0,2,,,,,
5372,23.02.1961,,,,,,,,,,,,,,,,,,,0,2,,,,,
5372,24.02.1961,,,,,,,,,,,,,,,,,,,0,2,,,,,
5372,25.02.1961,,,,,,,,,,,,,,,,,,,0,2,,,,,
5372,26.02.1961,,,,,,,,,,,,,,,,,,,0,2,,,,,
5372,27.02.1961,,,,,,,,,,,,,,,,,,,0,2,,,,,
5372,28.02.1961,,,,,,,,,,,,,,,,,,,0,2,,,,,
5372,01.03.1961,,,,,,,,,,,,,,,,,,,0,2,,,,,
5372,02.03.1961,,,,,,,,,,,,,,,,,,,0,2,,,,,
5372,03.03.1961,,,,,,,,,,,,,,,,,,,0,2,,,,,
5372,04.03.1961,,,,,,,,,,,,,,,,,,,0,2,,,,,
5372,05.03.1961,,,,,,,,,,,,,,,,,,,0,2,,,,,
5372,06.03.1961,,,,,,,,,,,,,,,,,,,0,2,,,,,
5372,07.03.1961,,,,,,,,,,,,,,,,,,,0,2,,,,,
5372,08.03.1961,,,,,,,,,,,,,,,,,,,0,2,,,,,
5372,09.03.1961,,,,,,,,,,,,,,,,,,,0,2,,,,,
5372,10.03.1961,,,,,,,,,,,,,,,,,,,0,2,,,,,
5372,11.03.1961,,,,,,,,,,,,,,,,,,,0,2,,,,,
5372,12.03.1961,,,,,,,,,,,,,,,,,,,0,2,,,,,
5372,13.03.1961,,,,,,,,,,,,,,,,,,,0,2,,,,,
5372,14.03.1961,,,,,,,,,,,,,,,,,,,0,2,,,,,
5372,15.03.1961,,,,,,,,,,,,,,,,,,,0,2,,,,,
5372,16.03.1961,,,,,,,,,,,,,,,,,,,0,2,,,,,
5372,17.03.1961,,,,,,,,,,,,,,,,,,,0,2,,,,,
5372,18.03.1961,,,,,,,,,,,,,,,,,,,0,2,,,,,
5372,19.03.1961,,,,,,,,,,,,,,,,,,,0,2,,,,,
5372,20.03.1961,,,,,,,,,,,,,,,,,,,0,2,,,,,
5372,21.03.1961,,,,,,,,,,,,,,,,,,,1,2,,,,,
5372,22.03.1961,,,,,,,,,,,,,,,,,,,1,2,,,,,
5372,23.03.1961,,,,,,,,,,,,,,,,,,,0,2,,,,,
5372,24.03.1961,,,,,,,,,,,,,,,,,,,0,2,,,,,
5372,25.03.1961,,,,,,,,,,,,,,,,,,,0,2,,,,,
5372,26.03.1961,,,,,,,,,,,,,,,,,,,0,2,,,,,
5372,27.03.1961,,,,,,,,,,,,,,,,,,,1,2,,,,,
5372,28.03.1961,,,,,,,,,,,,,,,,,,,2,2,,,,,
5372,29.03.1961,,,,,,,,,,,,,,,,,,,1,2,,,,,
5372,30.03.1961,,,,,,,,,,,,,,,,,,,0,2,,,,,
5372,31.03.1961,,,,,,,,,,,,,,,,,,,0,2,,,,,
5372,01.04.1961,,,,,,,,,,,,,,,,,,,1,2,,,,,
5372,02.04.1961,,,,,,,,,,,,,,,,,,,0,2,,,,,
5372,03.04.1961,,,,,,,,,,,,,,,,,,,0,2,,,,,
5372,04.04.1961,,,,,,,,,,,,,,,,,,,0,2,,,,,
5372,05.04.1961,,,,,,,,,,,,,,,,,,,0,2,,,,,
5372,06.04.1961,,,,,,,,,,,,,,,,,,,0,2,,,,,
5372,07.04.1961,,,,,,,,,,,,,,,,,,,0,2,,,,,
5372,08.04.1961,,,,,,,,,,,,,,,,,,,0,2,,,,,
5372,09.04.1961,,,,,,,,,,,,,,,,,,,0,2,,,,,
5372,10.04.1961,,,,,,,,,,,,,,,,,,,0,2,,,,,
5372,11.04.1961,,,,,,,,,,,,,,,,,,,0,2,,,,,
5372,12.04.1961,,,,,,,,,,,,,,,,,,,0,2,,,,,
5372,13.04.1961,,,,,,,,,,,,,,,,,,,0,2,,,,,
5372,14.04.1961,,,,,,,,,,,,,,,,,,,0,2,,,,,
5372,15.04.1961,,,,,,,,,,,,,,,,,,,0,2,,,,,
5372,16.04.1961,,,,,,,,,,,,,,,,,,,0,2,,,,,
5372,17.04.1961,,,,,,,,,,,,,,,,,,,0,2,,,,,
5372,18.04.1961,,,,,,,,,,,,,,,,,,,0,2,,,,,
5372,19.04.1961,,,,,,,,,,,,,,,,,,,0,2,,,,,
5372,20.04.1961,,,,,,,,,,,,,,,,,,,0,2,,,,,
5372,21.04.1961,,,,,,,,,,,,,,,,,,,0,2,,,,,
5372,22.04.1961,,,,,,,,,,,,,,,,,,,0,2,,,,,
5372,23.04.1961,,,,,,,,,,,,,,,,,,,0,2,,,,,
5372,24.04.1961,,,,,,,,,,,,,,,,,,,0,2,,,,,
5372,25.04.1961,,,,,,,,,,,,,,,,,,,0,2,,,,,
5372,26.04.1961,,,,,,,,,,,,,,,,,,,0,2,,,,,
5372,27.04.1961,,,,,,,,,,,,,,,,,,,0,2,,,,,
5372,28.04.1961,,,,,,,,,,,,,,,,,,,0,2,,,,,
5372,29.04.1961,,,,,,,,,,,,,,,,,,,0,2,,,,,
5372,30.04.1961,,,,,,,,,,,,,,,,,,,0,2,,,,,
5372,01.05.1961,,,,,,,,,,,,,,,,,,,0,2,,,,,
5372,02.05.1961,,,,,,,,,,,,,,,,,,,0,2,,,,,
5372,03.05.1961,,,,,,,,,,,,,,,,,,,0,2,,,,,
5372,04.05.1961,,,,,,,,,,,,,,,,,,,0,2,,,,,
5372,05.05.1961,,,,,,,,,,,,,,,,,,,0,2,,,,,
5372,06.05.1961,,,,,,,,,,,,,,,,,,,0,2,,,,,
5372,07.05.1961,,,,,,,,,,,,,,,,,,,0,2,,,,,
5372,08.05.1961,,,,,,,,,,,,,,,,,,,0,2,,,,,
5372,09.05.1961,,,,,,,,,,,,,,,,,,,0,2,,,,,
5372,10.05.1961,,,,,,,,,,,,,,,,,,,0,2,,,,,
5372,11.05.1961,,,,,,,,,,,,,,,,,,,0,2,,,,,
5372,12.05.1961,,,,,,,,,,,,,,,,,,,0,2,,,,,
5372,13.05.1961,,,,,,,,,,,,,,,,,,,0,2,,,,,
5372,14.05.1961,,,,,,,,,,,,,,,,,,,0,2,,,,,
5372,15.05.1961,,,,,,,,,,,,,,,,,,,0,2,,,,,
5372,16.05.1961,,,,,,,,,,,,,,,,,,,0,2,,,,,
5372,17.05.1961,,,,,,,,,,,,,,,,,,,0,2,,,,,
5372,18.05.1961,,,,,,,,,,,,,,,,,,,0,2,,,,,
5372,19.05.1961,,,,,,,,,,,,,,,,,,,0,2,,,,,
5372,20.05.1961,,,,,,,,,,,,,,,,,,,0,2,,,,,
5372,21.05.1961,,,,,,,,,,,,,,,,,,,0,2,,,,,
5372,22.05.1961,,,,,,,,,,,,,,,,,,,0,2,,,,,
5372,23.05.1961,,,,,,,,,,,,,,,,,,,0,2,,,,,
5372,24.05.1961,,,,,,,,,,,,,,,,,,,0,2,,,,,
5372,25.05.1961,,,,,,,,,,,,,,,,,,,0,2,,,,,
5372,26.05.1961,,,,,,,,,,,,,,,,,,,0,2,,,,,
5372,27.05.1961,,,,,,,,,,,,,,,,,,,0,2,,,,,
5372,28.05.1961,,,,,,,,,,,,,,,,,,,0,2,,,,,
5372,29.05.1961,,,,,,,,,,,,,,,,,,,0,2,,,,,
5372,30.05.1961,,,,,,,,,,,,,,,,,,,0,2,,,,,
5372,31.05.1961,,,,,,,,,,,,,,,,,,,0,2,,,,,
5372,01.06.1961,,,,,,,,,,,,,,,,,,,0,2,,,,,
5372,02.06.1961,,,,,,,,,,,,,,,,,,,0,2,,,,,
5372,03.06.1961,,,,,,,,,,,,,,,,,,,0,2,,,,,
5372,04.06.1961,,,,,,,,,,,,,,,,,,,0,2,,,,,
5372,05.06.1961,,,,,,,,,,,,,,,,,,,0,2,,,,,
5372,06.06.1961,,,,,,,,,,,,,,,,,,,0,2,,,,,
5372,07.06.1961,,,,,,,,,,,,,,,,,,,0,2,,,,,
5372,08.06.1961,,,,,,,,,,,,,,,,,,,0,2,,,,,
5372,09.06.1961,,,,,,,,,,,,,,,,,,,0,2,,,,,
5372,10.06.1961,,,,,,,,,,,,,,,,,,,0,2,,,,,
5372,11.06.1961,,,,,,,,,,,,,,,,,,,0,2,,,,,
5372,12.06.1961,,,,,,,,,,,,,,,,,,,0,2,,,,,
5372,13.06.1961,,,,,,,,,,,,,,,,,,,0,2,,,,,
5372,14.06.1961,,,,,,,,,,,,,,,,,,,0,2,,,,,
5372,15.06.1961,,,,,,,,,,,,,,,,,,,0,2,,,,,
5372,16.06.1961,,,,,,,,,,,,,,,,,,,0,2,,,,,
5372,17.06.1961,,,,,,,,,,,,,,,,,,,0,2,,,,,
5372,18.06.1961,,,,,,,,,,,,,,,,,,,0,2,,,,,
5372,19.06.1961,,,,,,,,,,,,,,,,,,,0,2,,,,,
5372,20.06.1961,,,,,,,,,,,,,,,,,,,0,2,,,,,
5372,21.06.1961,,,,,,,,,,,,,,,,,,,0,2,,,,,
5372,22.06.1961,,,,,,,,,,,,,,,,,,,0,2,,,,,
5372,23.06.1961,,,,,,,,,,,,,,,,,,,0,2,,,,,
5372,24.06.1961,,,,,,,,,,,,,,,,,,,0,2,,,,,
5372,25.06.1961,,,,,,,,,,,,,,,,,,,0,2,,,,,
5372,26.06.1961,,,,,,,,,,,,,,,,,,,0,2,,,,,
5372,27.06.1961,,,,,,,,,,,,,,,,,,,0,2,,,,,
5372,28.06.1961,,,,,,,,,,,,,,,,,,,0,2,,,,,
5372,29.06.1961,,,,,,,,,,,,,,,,,,,0,2,,,,,
5372,30.06.1961,,,,,,,,,,,,,,,,,,,0,2,,,,,
5372,01.07.1961,,,,,,,,,,,,,,,,,,,0,2,,,,,
5372,02.07.1961,,,,,,,,,,,,,,,,,,,0,2,,,,,
5372,03.07.1961,,,,,,,,,,,,,,,,,,,0,2,,,,,
5372,04.07.1961,,,,,,,,,,,,,,,,,,,0,2,,,,,
5372,05.07.1961,,,,,,,,,,,,,,,,,,,0,2,,,,,
5372,06.07.1961,,,,,,,,,,,,,,,,,,,0,2,,,,,
5372,07.07.1961,,,,,,,,,,,,,,,,,,,0,2,,,,,
5372,08.07.1961,,,,,,,,,,,,,,,,,,,0,2,,,,,
5372,09.07.1961,,,,,,,,,,,,,,,,,,,0,2,,,,,
5372,10.07.1961,,,,,,,,,,,,,,,,,,,0,2,,,,,
5372,11.07.1961,,,,,,,,,,,,,,,,,,,0,2,,,,,
5372,12.07.1961,,,,,,,,,,,,,,,,,,,0,2,,,,,
5372,13.07.1961,,,,,,,,,,,,,,,,,,,0,2,,,,,
5372,14.07.1961,,,,,,,,,,,,,,,,,,,0,2,,,,,
5372,15.07.1961,,,,,,,,,,,,,,,,,,,0,2,,,,,
5372,16.07.1961,,,,,,,,,,,,,,,,,,,0,2,,,,,
5372,17.07.1961,,,,,,,,,,,,,,,,,,,0,2,,,,,
5372,18.07.1961,,,,,,,,,,,,,,,,,,,0,2,,,,,
5372,19.07.1961,,,,,,,,,,,,,,,,,,,0,2,,,,,
5372,20.07.1961,,,,,,,,,,,,,,,,,,,0,2,,,,,
5372,21.07.1961,,,,,,,,,,,,,,,,,,,0,2,,,,,
5372,22.07.1961,,,,,,,,,,,,,,,,,,,0,2,,,,,
5372,23.07.1961,,,,,,,,,,,,,,,,,,,0,2,,,,,
5372,24.07.1961,,,,,,,,,,,,,,,,,,,0,2,,,,,
5372,25.07.1961,,,,,,,,,,,,,,,,,,,0,2,,,,,
5372,26.07.1961,,,,,,,,,,,,,,,,,,,0,2,,,,,
5372,27.07.1961,,,,,,,,,,,,,,,,,,,0,2,,,,,
5372,28.07.1961,,,,,,,,,,,,,,,,,,,0,2,,,,,
5372,29.07.1961,,,,,,,,,,,,,,,,,,,0,2,,,,,
5372,30.07.1961,,,,,,,,,,,,,,,,,,,0,2,,,,,
5372,31.07.1961,,,,,,,,,,,,,,,,,,,0,2,,,,,
5372,01.08.1961,,,,,,,,,,,,,,,,,,,0,2,,,,,
5372,02.08.1961,,,,,,,,,,,,,,,,,,,0,2,,,,,
5372,03.08.1961,,,,,,,,,,,,,,,,,,,0,2,,,,,
5372,04.08.1961,,,,,,,,,,,,,,,,,,,0,2,,,,,
5372,05.08.1961,,,,,,,,,,,,,,,,,,,0,2,,,,,
5372,06.08.1961,,,,,,,,,,,,,,,,,,,0,2,,,,,
5372,07.08.1961,,,,,,,,,,,,,,,,,,,0,2,,,,,
5372,08.08.1961,,,,,,,,,,,,,,,,,,,0,2,,,,,
5372,09.08.1961,,,,,,,,,,,,,,,,,,,0,2,,,,,
5372,10.08.1961,,,,,,,,,,,,,,,,,,,0,2,,,,,
5372,11.08.1961,,,,,,,,,,,,,,,,,,,0,2,,,,,
5372,12.08.1961,,,,,,,,,,,,,,,,,,,0,2,,,,,
5372,13.08.1961,,,,,,,,,,,,,,,,,,,0,2,,,,,
5372,14.08.1961,,,,,,,,,,,,,,,,,,,0,2,,,,,
5372,15.08.1961,,,,,,,,,,,,,,,,,,,0,2,,,,,
5372,16.08.1961,,,,,,,,,,,,,,,,,,,0,2,,,,,
5372,17.08.1961,,,,,,,,,,,,,,,,,,,0,2,,,,,
5372,18.08.1961,,,,,,,,,,,,,,,,,,,0,2,,,,,
5372,19.08.1961,,,,,,,,,,,,,,,,,,,0,2,,,,,
5372,20.08.1961,,,,,,,,,,,,,,,,,,,0,2,,,,,
5372,21.08.1961,,,,,,,,,,,,,,,,,,,0,2,,,,,
5372,22.08.1961,,,,,,,,,,,,,,,,,,,0,2,,,,,
5372,23.08.1961,,,,,,,,,,,,,,,,,,,0,2,,,,,
5372,24.08.1961,,,,,,,,,,,,,,,,,,,0,2,,,,,
5372,25.08.1961,,,,,,,,,,,,,,,,,,,0,2,,,,,
5372,26.08.1961,,,,,,,,,,,,,,,,,,,0,2,,,,,
5372,27.08.1961,,,,,,,,,,,,,,,,,,,0,2,,,,,
5372,28.08.1961,,,,,,,,,,,,,,,,,,,0,2,,,,,
5372,29.08.1961,,,,,,,,,,,,,,,,,,,0,2,,,,,
5372,30.08.1961,,,,,,,,,,,,,,,,,,,0,2,,,,,
5372,31.08.1961,,,,,,,,,,,,,,,,,,,0,2,,,,,
5372,01.09.1961,,,,,,,,,,,,,,,,,,,0,2,,,,,
5372,02.09.1961,,,,,,,,,,,,,,,,,,,0,2,,,,,
5372,03.09.1961,,,,,,,,,,,,,,,,,,,0,2,,,,,
5372,04.09.1961,,,,,,,,,,,,,,,,,,,0,2,,,,,
5372,05.09.1961,,,,,,,,,,,,,,,,,,,0,2,,,,,
5372,06.09.1961,,,,,,,,,,,,,,,,,,,0,2,,,,,
5372,07.09.1961,,,,,,,,,,,,,,,,,,,0,2,,,,,
5372,08.09.1961,,,,,,,,,,,,,,,,,,,0,2,,,,,
5372,09.09.1961,,,,,,,,,,,,,,,,,,,0,2,,,,,
5372,10.09.1961,,,,,,,,,,,,,,,,,,,0,2,,,,,
5372,11.09.1961,,,,,,,,,,,,,,,,,,,0,2,,,,,
5372,12.09.1961,,,,,,,,,,,,,,,,,,,0,2,,,,,
5372,13.09.1961,,,,,,,,,,,,,,,,,,,0,2,,,,,
5372,14.09.1961,,,,,,,,,,,,,,,,,,,0,2,,,,,
5372,15.09.1961,,,,,,,,,,,,,,,,,,,0,2,,,,,
5372,16.09.1961,,,,,,,,,,,,,,,,,,,0,2,,,,,
5372,17.09.1961,,,,,,,,,,,,,,,,,,,0,2,,,,,
5372,18.09.1961,,,,,,,,,,,,,,,,,,,0,2,,,,,
5372,19.09.1961,,,,,,,,,,,,,,,,,,,0,2,,,,,
5372,20.09.1961,,,,,,,,,,,,,,,,,,,0,2,,,,,
5372,21.09.1961,,,,,,,,,,,,,,,,,,,0,2,,,,,
5372,22.09.1961,,,,,,,,,,,,,,,,,,,0,2,,,,,
5372,23.09.1961,,,,,,,,,,,,,,,,,,,0,2,,,,,
5372,24.09.1961,,,,,,,,,,,,,,,,,,,0,2,,,,,
5372,25.09.1961,,,,,,,,,,,,,,,,,,,0,2,,,,,
5372,26.09.1961,,,,,,,,,,,,,,,,,,,0,2,,,,,
5372,27.09.1961,,,,,,,,,,,,,,,,,,,0,2,,,,,
5372,28.09.1961,,,,,,,,,,,,,,,,,,,0,2,,,,,
5372,29.09.1961,,,,,,,,,,,,,,,,,,,0,2,,,,,
5372,30.09.1961,,,,,,,,,,,,,,,,,,,0,2,,,,,
5372,01.10.1961,,,,,,,,,,,,,,,,,,,0,2,,,,,
5372,02.10.1961,,,,,,,,,,,,,,,,,,,0,2,,,,,
5372,03.10.1961,,,,,,,,,,,,,,,,,,,0,2,,,,,
5372,04.10.1961,,,,,,,,,,,,,,,,,,,0,2,,,,,
5372,05.10.1961,,,,,,,,,,,,,,,,,,,0,2,,,,,
5372,06.10.1961,,,,,,,,,,,,,,,,,,,0,2,,,,,
5372,07.10.1961,,,,,,,,,,,,,,,,,,,0,2,,,,,
5372,08.10.1961,,,,,,,,,,,,,,,,,,,0,2,,,,,
5372,09.10.1961,,,,,,,,,,,,,,,,,,,0,2,,,,,
5372,10.10.1961,,,,,,,,,,,,,,,,,,,0,2,,,,,
5372,11.10.1961,,,,,,,,,,,,,,,,,,,0,2,,,,,
5372,12.10.1961,,,,,,,,,,,,,,,,,,,0,2,,,,,
5372,13.10.1961,,,,,,,,,,,,,,,,,,,0,2,,,,,
5372,14.10.1961,,,,,,,,,,,,,,,,,,,0,2,,,,,
5372,15.10.1961,,,,,,,,,,,,,,,,,,,0,2,,,,,
5372,16.10.1961,,,,,,,,,,,,,,,,,,,0,2,,,,,
5372,17.10.1961,,,,,,,,,,,,,,,,,,,0,2,,,,,
5372,18.10.1961,,,,,,,,,,,,,,,,,,,0,2,,,,,
5372,19.10.1961,,,,,,,,,,,,,,,,,,,0,2,,,,,
5372,20.10.1961,,,,,,,,,,,,,,,,,,,0,2,,,,,
5372,21.10.1961,,,,,,,,,,,,,,,,,,,0,2,,,,,
5372,22.10.1961,,,,,,,,,,,,,,,,,,,0,2,,,,,
5372,23.10.1961,,,,,,,,,,,,,,,,,,,0,2,,,,,
5372,24.10.1961,,,,,,,,,,,,,,,,,,,0,2,,,,,
5372,25.10.1961,,,,,,,,,,,,,,,,,,,0,2,,,,,
5372,26.10.1961,,,,,,,,,,,,,,,,,,,0,2,,,,,
5372,27.10.1961,,,,,,,,,,,,,,,,,,,0,2,,,,,
5372,28.10.1961,,,,,,,,,,,,,,,,,,,0,2,,,,,
5372,29.10.1961,,,,,,,,,,,,,,,,,,,0,2,,,,,
5372,30.10.1961,,,,,,,,,,,,,,,,,,,0,2,,,,,
5372,31.10.1961,,,,,,,,,,,,,,,,,,,0,2,,,,,
5372,01.11.1961,,,,,,,,,,,,,,,,,,,0,2,,,,,
5372,02.11.1961,,,,,,,,,,,,,,,,,,,0,2,,,,,
5372,03.11.1961,,,,,,,,,,,,,,,,,,,0,2,,,,,
5372,04.11.1961,,,,,,,,,,,,,,,,,,,0,2,,,,,
5372,05.11.1961,,,,,,,,,,,,,,,,,,,0,2,,,,,
5372,06.11.1961,,,,,,,,,,,,,,,,,,,0,2,,,,,
5372,07.11.1961,,,,,,,,,,,,,,,,,,,0,2,,,,,
5372,08.11.1961,,,,,,,,,,,,,,,,,,,0,2,,,,,
5372,09.11.1961,,,,,,,,,,,,,,,,,,,0,2,,,,,
5372,10.11.1961,,,,,,,,,,,,,,,,,,,0,2,,,,,
5372,11.11.1961,,,,,,,,,,,,,,,,,,,0,2,,,,,
5372,12.11.1961,,,,,,,,,,,,,,,,,,,0,2,,,,,
5372,13.11.1961,,,,,,,,,,,,,,,,,,,0,2,,,,,
5372,14.11.1961,,,,,,,,,,,,,,,,,,,1,2,,,,,
5372,15.11.1961,,,,,,,,,,,,,,,,,,,0,2,,,,,
5372,16.11.1961,,,,,,,,,,,,,,,,,,,0,2,,,,,
5372,17.11.1961,,,,,,,,,,,,,,,,,,,0,2,,,,,
5372,18.11.1961,,,,,,,,,,,,,,,,,,,0,2,,,,,
5372,19.11.1961,,,,,,,,,,,,,,,,,,,0,2,,,,,
5372,20.11.1961,,,,,,,,,,,,,,,,,,,1,2,,,,,
5372,21.11.1961,,,,,,,,,,,,,,,,,,,1,2,,,,,
5372,22.11.1961,,,,,,,,,,,,,,,,,,,0,2,,,,,
5372,23.11.1961,,,,,,,,,,,,,,,,,,,1,2,,,,,
5372,24.11.1961,,,,,,,,,,,,,,,,,,,0,2,,,,,
5372,25.11.1961,,,,,,,,,,,,,,,,,,,0,2,,,,,
5372,26.11.1961,,,,,,,,,,,,,,,,,,,0,2,,,,,
5372,27.11.1961,,,,,,,,,,,,,,,,,,,0,2,,,,,
5372,28.11.1961,,,,,,,,,,,,,,,,,,,0,2,,,,,
5372,29.11.1961,,,,,,,,,,,,,,,,,,,0,2,,,,,
5372,30.11.1961,,,,,,,,,,,,,,,,,,,0,2,,,,,
5372,01.12.1961,,,,,,,,,,,,,,,,,,,0,2,,,,,
5372,02.12.1961,,,,,,,,,,,,,,,,,,,0,2,,,,,
5372,03.12.1961,,,,,,,,,,,,,,,,,,,0,2,,,,,
5372,04.12.1961,,,,,,,,,,,,,,,,,,,0,2,,,,,
5372,05.12.1961,,,,,,,,,,,,,,,,,,,0,2,,,,,
5372,06.12.1961,,,,,,,,,,,,,,,,,,,1,2,,,,,
5372,07.12.1961,,,,,,,,,,,,,,,,,,,1,2,,,,,
5372,08.12.1961,,,,,,,,,,,,,,,,,,,1,2,,,,,
5372,09.12.1961,,,,,,,,,,,,,,,,,,,0,2,,,,,
5372,10.12.1961,,,,,,,,,,,,,,,,,,,0,2,,,,,
5372,11.12.1961,,,,,,,,,,,,,,,,,,,0,2,,,,,
5372,12.12.1961,,,,,,,,,,,,,,,,,,,0,2,,,,,
5372,13.12.1961,,,,,,,,,,,,,,,,,,,0,2,,,,,
5372,14.12.1961,,,,,,,,,,,,,,,,,,,0,2,,,,,
5372,15.12.1961,,,,,,,,,,,,,,,,,,,1,2,,,,,
5372,16.12.1961,,,,,,,,,,,,,,,,,,,3,2,,,,,
5372,17.12.1961,,,,,,,,,,,,,,,,,,,4,2,,,,,
5372,18.12.1961,,,,,,,,,,,,,,,,,,,4,2,,,,,
5372,19.12.1961,,,,,,,,,,,,,,,,,,,3,2,,,,,
5372,20.12.1961,,,,,,,,,,,,,,,,,,,1,2,,,,,
5372,21.12.1961,,,,,,,,,,,,,,,,,,,1,2,,,,,
5372,22.12.1961,,,,,,,,,,,,,,,,,,,1,2,,,,,
5372,23.12.1961,,,,,,,,,,,,,,,,,,,2,2,,,,,
5372,24.12.1961,,,,,,,,,,,,,,,,,,,5,2,,,,,
5372,25.12.1961,,,,,,,,,,,,,,,,,,,6,2,,,,,
5372,26.12.1961,,,,,,,,,,,,,,,,,,,6,2,,,,,
5372,27.12.1961,,,,,,,,,,,,,,,,,,,6,2,,,,,
5372,28.12.1961,,,,,,,,,,,,,,,,,,,5,2,,,,,
5372,29.12.1961,,,,,,,,,,,,,,,,,,,2,2,,,,,
5372,30.12.1961,,,,,,,,,,,,,,,,,,,2,2,,,,,
5372,31.12.1961,,,,,,,,,,,,,,,,,,,0,2,,,,,
5372,01.01.1962,,,,,,,,,,,,,,,,,,,1,2,,,,,
5372,02.01.1962,,,,,,,,,,,,,,,,,,,1,2,,,,,
5372,03.01.1962,,,,,,,,,,,,,,,,,,,1,2,,,,,
5372,04.01.1962,,,,,,,,,,,,,,,,,,,1,2,,,,,
5372,05.01.1962,,,,,,,,,,,,,,,,,,,1,2,,,,,
5372,06.01.1962,,,,,,,,,,,,,,,,,,,1,2,,,,,
5372,07.01.1962,,,,,,,,,,,,,,,,,,,1,2,,,,,
5372,08.01.1962,,,,,,,,,,,,,,,,,,,1,2,,,,,
5372,09.01.1962,,,,,,,,,,,,,,,,,,,0,2,,,,,
5372,10.01.1962,,,,,,,,,,,,,,,,,,,0,2,,,,,
5372,11.01.1962,,,,,,,,,,,,,,,,,,,0,2,,,,,
5372,12.01.1962,,,,,,,,,,,,,,,,,,,0,2,,,,,
5372,13.01.1962,,,,,,,,,,,,,,,,,,,0,2,,,,,
5372,14.01.1962,,,,,,,,,,,,,,,,,,,0,2,,,,,
5372,15.01.1962,,,,,,,,,,,,,,,,,,,0,2,,,,,
5372,16.01.1962,,,,,,,,,,,,,,,,,,,0,2,,,,,
5372,17.01.1962,,,,,,,,,,,,,,,,,,,0,2,,,,,
5372,18.01.1962,,,,,,,,,,,,,,,,,,,0,2,,,,,
5372,19.01.1962,,,,,,,,,,,,,,,,,,,0,2,,,,,
5372,20.01.1962,,,,,,,,,,,,,,,,,,,0,2,,,,,
5372,21.01.1962,,,,,,,,,,,,,,,,,,,0,2,,,,,
5372,22.01.1962,,,,,,,,,,,,,,,,,,,0,2,,,,,
5372,23.01.1962,,,,,,,,,,,,,,,,,,,0,2,,,,,
5372,24.01.1962,,,,,,,,,,,,,,,,,,,0,2,,,,,
5372,25.01.1962,,,,,,,,,,,,,,,,,,,0,2,,,,,
5372,26.01.1962,,,,,,,,,,,,,,,,,,,0,2,,,,,
5372,27.01.1962,,,,,,,,,,,,,,,,,,,1,2,,,,,
5372,28.01.1962,,,,,,,,,,,,,,,,,,,1,2,,,,,
5372,29.01.1962,,,,,,,,,,,,,,,,,,,1,2,,,,,
5372,30.01.1962,,,,,,,,,,,,,,,,,,,2,2,,,,,
5372,31.01.1962,,,,,,,,,,,,,,,,,,,2,2,,,,,
5372,01.02.1962,,,,,,,,,,,,,,,,,,,2,2,,,,,
5372,02.02.1962,,,,,,,,,,,,,,,,,,,5,2,,,,,
5372,03.02.1962,,,,,,,,,,,,,,,,,,,4,2,,,,,
5372,04.02.1962,,,,,,,,,,,,,,,,,,,3,2,,,,,
5372,05.02.1962,,,,,,,,,,,,,,,,,,,2,2,,,,,
5372,06.02.1962,,,,,,,,,,,,,,,,,,,1,2,,,,,
5372,07.02.1962,,,,,,,,,,,,,,,,,,,1,2,,,,,
5372,08.02.1962,,,,,,,,,,,,,,,,,,,0,2,,,,,
5372,09.02.1962,,,,,,,,,,,,,,,,,,,0,2,,,,,
5372,10.02.1962,,,,,,,,,,,,,,,,,,,0,2,,,,,
5372,11.02.1962,,,,,,,,,,,,,,,,,,,0,2,,,,,
5372,12.02.1962,,,,,,,,,,,,,,,,,,,1,2,,,,,
5372,13.02.1962,,,,,,,,,,,,,,,,,,,1,2,,,,,
5372,14.02.1962,,,,,,,,,,,,,,,,,,,2,2,,,,,
5372,15.02.1962,,,,,,,,,,,,,,,,,,,3,2,,,,,
5372,16.02.1962,,,,,,,,,,,,,,,,,,,2,2,,,,,
5372,17.02.1962,,,,,,,,,,,,,,,,,,,1,2,,,,,
5372,18.02.1962,,,,,,,,,,,,,,,,,,,0,2,,,,,
5372,19.02.1962,,,,,,,,,,,,,,,,,,,0,2,,,,,
5372,20.02.1962,,,,,,,,,,,,,,,,,,,0,2,,,,,
5372,21.02.1962,,,,,,,,,,,,,,,,,,,0,2,,,,,
5372,22.02.1962,,,,,,,,,,,,,,,,,,,0,2,,,,,
5372,23.02.1962,,,,,,,,,,,,,,,,,,,2,2,,,,,
5372,24.02.1962,,,,,,,,,,,,,,,,,,,1,2,,,,,
5372,25.02.1962,,,,,,,,,,,,,,,,,,,2,2,,,,,
5372,26.02.1962,,,,,,,,,,,,,,,,,,,3,2,,,,,
5372,27.02.1962,,,,,,,,,,,,,,,,,,,3,2,,,,,
5372,28.02.1962,,,,,,,,,,,,,,,,,,,2,2,,,,,
5372,01.03.1962,,,,,,,,,,,,,,,,,,,2,2,,,,,
5372,02.03.1962,,,,,,,,,,,,,,,,,,,2,2,,,,,
5372,03.03.1962,,,,,,,,,,,,,,,,,,,2,2,,,,,
5372,04.03.1962,,,,,,,,,,,,,,,,,,,4,2,,,,,
5372,05.03.1962,,,,,,,,,,,,,,,,,,,15,2,,,,,
5372,06.03.1962,,,,,,,,,,,,,,,,,,,19,2,,,,,
5372,07.03.1962,,,,,,,,,,,,,,,,,,,16,2,,,,,
5372,08.03.1962,,,,,,,,,,,,,,,,,,,12,2,,,,,
5372,09.03.1962,,,,,,,,,,,,,,,,,,,9,2,,,,,
5372,10.03.1962,,,,,,,,,,,,,,,,,,,6,2,,,,,
5372,11.03.1962,,,,,,,,,,,,,,,,,,,4,2,,,,,
5372,12.03.1962,,,,,,,,,,,,,,,,,,,3,2,,,,,
5372,13.03.1962,,,,,,,,,,,,,,,,,,,4,2,,,,,
5372,14.03.1962,,,,,,,,,,,,,,,,,,,5,2,,,,,
5372,15.03.1962,,,,,,,,,,,,,,,,,,,4,2,,,,,
5372,16.03.1962,,,,,,,,,,,,,,,,,,,4,2,,,,,
5372,17.03.1962,,,,,,,,,,,,,,,,,,,2,2,,,,,
5372,18.03.1962,,,,,,,,,,,,,,,,,,,2,2,,,,,
5372,19.03.1962,,,,,,,,,,,,,,,,,,,2,2,,,,,
5372,20.03.1962,,,,,,,,,,,,,,,,,,,2,2,,,,,
5372,21.03.1962,,,,,,,,,,,,,,,,,,,1,2,,,,,
5372,22.03.1962,,,,,,,,,,,,,,,,,,,1,2,,,,,
5372,23.03.1962,,,,,,,,,,,,,,,,,,,1,2,,,,,
5372,24.03.1962,,,,,,,,,,,,,,,,,,,1,2,,,,,
5372,25.03.1962,,,,,,,,,,,,,,,,,,,1,2,,,,,
5372,26.03.1962,,,,,,,,,,,,,,,,,,,0,2,,,,,
5372,27.03.1962,,,,,,,,,,,,,,,,,,,1,2,,,,,
5372,28.03.1962,,,,,,,,,,,,,,,,,,,0,2,,,,,
5372,29.03.1962,,,,,,,,,,,,,,,,,,,0,2,,,,,
5372,30.03.1962,,,,,,,,,,,,,,,,,,,0,2,,,,,
5372,31.03.1962,,,,,,,,,,,,,,,,,,,0,2,,,,,
5372,01.04.1962,,,,,,,,,,,,,,,,,,,0,2,,,,,
5372,02.04.1962,,,,,,,,,,,,,,,,,,,0,2,,,,,
5372,03.04.1962,,,,,,,,,,,,,,,,,,,0,2,,,,,
5372,04.04.1962,,,,,,,,,,,,,,,,,,,0,2,,,,,
5372,05.04.1962,,,,,,,,,,,,,,,,,,,0,2,,,,,
5372,06.04.1962,,,,,,,,,,,,,,,,,,,0,2,,,,,
5372,07.04.1962,,,,,,,,,,,,,,,,,,,0,2,,,,,
5372,08.04.1962,,,,,,,,,,,,,,,,,,,0,2,,,,,
5372,09.04.1962,,,,,,,,,,,,,,,,,,,0,2,,,,,
5372,10.04.1962,,,,,,,,,,,,,,,,,,,0,2,,,,,
5372,11.04.1962,,,,,,,,,,,,,,,,,,,0,2,,,,,
5372,12.04.1962,,,,,,,,,,,,,,,,,,,0,2,,,,,
5372,13.04.1962,,,,,,,,,,,,,,,,,,,0,2,,,,,
5372,14.04.1962,,,,,,,,,,,,,,,,,,,0,2,,,,,
5372,15.04.1962,,,,,,,,,,,,,,,,,,,0,2,,,,,
5372,16.04.1962,,,,,,,,,,,,,,,,,,,0,2,,,,,
5372,17.04.1962,,,,,,,,,,,,,,,,,,,0,2,,,,,
5372,18.04.1962,,,,,,,,,,,,,,,,,,,0,2,,,,,
5372,19.04.1962,,,,,,,,,,,,,,,,,,,0,2,,,,,
5372,20.04.1962,,,,,,,,,,,,,,,,,,,0,2,,,,,
5372,21.04.1962,,,,,,,,,,,,,,,,,,,0,2,,,,,
5372,22.04.1962,,,,,,,,,,,,,,,,,,,0,2,,,,,
5372,23.04.1962,,,,,,,,,,,,,,,,,,,0,2,,,,,
5372,24.04.1962,,,,,,,,,,,,,,,,,,,0,2,,,,,
5372,25.04.1962,,,,,,,,,,,,,,,,,,,0,2,,,,,
5372,26.04.1962,,,,,,,,,,,,,,,,,,,0,2,,,,,
5372,27.04.1962,,,,,,,,,,,,,,,,,,,0,2,,,,,
5372,28.04.1962,,,,,,,,,,,,,,,,,,,0,2,,,,,
5372,29.04.1962,,,,,,,,,,,,,,,,,,,0,2,,,,,
5372,30.04.1962,,,,,,,,,,,,,,,,,,,0,2,,,,,
5372,01.05.1962,,,,,,,,,,,,,,,,,,,0,2,,,,,
5372,02.05.1962,,,,,,,,,,,,,,,,,,,0,2,,,,,
5372,03.05.1962,,,,,,,,,,,,,,,,,,,0,2,,,,,
5372,04.05.1962,,,,,,,,,,,,,,,,,,,0,2,,,,,
5372,05.05.1962,,,,,,,,,,,,,,,,,,,0,2,,,,,
5372,06.05.1962,,,,,,,,,,,,,,,,,,,0,2,,,,,
5372,07.05.1962,,,,,,,,,,,,,,,,,,,0,2,,,,,
5372,08.05.1962,,,,,,,,,,,,,,,,,,,0,2,,,,,
5372,09.05.1962,,,,,,,,,,,,,,,,,,,0,2,,,,,
5372,10.05.1962,,,,,,,,,,,,,,,,,,,0,2,,,,,
5372,11.05.1962,,,,,,,,,,,,,,,,,,,0,2,,,,,
5372,12.05.1962,,,,,,,,,,,,,,,,,,,0,2,,,,,
5372,13.05.1962,,,,,,,,,,,,,,,,,,,0,2,,,,,
5372,14.05.1962,,,,,,,,,,,,,,,,,,,0,2,,,,,
5372,15.05.1962,,,,,,,,,,,,,,,,,,,0,2,,,,,
5372,16.05.1962,,,,,,,,,,,,,,,,,,,0,2,,,,,
5372,17.05.1962,,,,,,,,,,,,,,,,,,,0,2,,,,,
5372,18.05.1962,,,,,,,,,,,,,,,,,,,0,2,,,,,
5372,19.05.1962,,,,,,,,,,,,,,,,,,,0,2,,,,,
5372,20.05.1962,,,,,,,,,,,,,,,,,,,0,2,,,,,
5372,21.05.1962,,,,,,,,,,,,,,,,,,,0,2,,,,,
5372,22.05.1962,,,,,,,,,,,,,,,,,,,0,2,,,,,
5372,23.05.1962,,,,,,,,,,,,,,,,,,,0,2,,,,,
5372,24.05.1962,,,,,,,,,,,,,,,,,,,0,2,,,,,
5372,25.05.1962,,,,,,,,,,,,,,,,,,,0,2,,,,,
5372,26.05.1962,,,,,,,,,,,,,,,,,,,0,2,,,,,
5372,27.05.1962,,,,,,,,,,,,,,,,,,,0,2,,,,,
5372,28.05.1962,,,,,,,,,,,,,,,,,,,0,2,,,,,
5372,29.05.1962,,,,,,,,,,,,,,,,,,,0,2,,,,,
5372,30.05.1962,,,,,,,,,,,,,,,,,,,0,2,,,,,
5372,31.05.1962,,,,,,,,,,,,,,,,,,,0,2,,,,,
5372,01.06.1962,,,,,,,,,,,,,,,,,,,0,2,,,,,
5372,02.06.1962,,,,,,,,,,,,,,,,,,,0,2,,,,,
5372,03.06.1962,,,,,,,,,,,,,,,,,,,0,2,,,,,
5372,04.06.1962,,,,,,,,,,,,,,,,,,,0,2,,,,,
5372,05.06.1962,,,,,,,,,,,,,,,,,,,0,2,,,,,
5372,06.06.1962,,,,,,,,,,,,,,,,,,,0,2,,,,,
5372,07.06.1962,,,,,,,,,,,,,,,,,,,0,2,,,,,
5372,08.06.1962,,,,,,,,,,,,,,,,,,,0,2,,,,,
5372,09.06.1962,,,,,,,,,,,,,,,,,,,0,2,,,,,
5372,10.06.1962,,,,,,,,,,,,,,,,,,,0,2,,,,,
5372,11.06.1962,,,,,,,,,,,,,,,,,,,0,2,,,,,
5372,12.06.1962,,,,,,,,,,,,,,,,,,,0,2,,,,,
5372,13.06.1962,,,,,,,,,,,,,,,,,,,0,2,,,,,
5372,14.06.1962,,,,,,,,,,,,,,,,,,,0,2,,,,,
5372,15.06.1962,,,,,,,,,,,,,,,,,,,0,2,,,,,
5372,16.06.1962,,,,,,,,,,,,,,,,,,,0,2,,,,,
5372,17.06.1962,,,,,,,,,,,,,,,,,,,0,2,,,,,
5372,18.06.1962,,,,,,,,,,,,,,,,,,,0,2,,,,,
5372,19.06.1962,,,,,,,,,,,,,,,,,,,0,2,,,,,
5372,20.06.1962,,,,,,,,,,,,,,,,,,,0,2,,,,,
5372,21.06.1962,,,,,,,,,,,,,,,,,,,0,2,,,,,
5372,22.06.1962,,,,,,,,,,,,,,,,,,,0,2,,,,,
5372,23.06.1962,,,,,,,,,,,,,,,,,,,0,2,,,,,
5372,24.06.1962,,,,,,,,,,,,,,,,,,,0,2,,,,,
5372,25.06.1962,,,,,,,,,,,,,,,,,,,0,2,,,,,
5372,26.06.1962,,,,,,,,,,,,,,,,,,,0,2,,,,,